Location: East Fork Observatory
(32.9757°N, 94.4485°W)
Time: 06:53:56
(UTC-06:00)

ITUPSAT 1 - Visible Passes

Search period start: 10 December 2019 00:00
Search period end: 20 December 2019 00:00
Orbit: 701 x 713 km, 98.6° (Epoch: 09 December)

Date Brightness Start Highest point End Pass type
(mag) Time Alt. Az. Time Alt. Az. Time Alt. Az.
10 Dec ? 03:46:53 10° E 03:47:56 11° ENE 03:47:56 11° ENE visible
10 Dec ? 05:20:58 10° S 05:25:39 61° WSW 05:26:56 44° NW visible
10 Dec ? 19:04:48 10° NNW 19:07:34 15° WNW 19:10:20 10° WSW visible
11 Dec ? 04:28:03 10° SE 04:32:17 33° ENE 04:32:41 33° ENE visible
11 Dec ? 06:06:39 10° SW 06:10:05 20° W 06:11:40 17° WNW visible
11 Dec ? 18:09:45 10° N 18:14:27 56° WNW 18:19:08 10° SSW visible
12 Dec ? 05:11:40 10° S 05:16:24 79° WSW 05:17:26 55° NNW visible
12 Dec ? 18:55:03 10° NNW 18:58:26 19° WNW 19:01:48 10° WSW visible
13 Dec ? 04:19:11 10° SE 04:23:07 26° ENE 04:23:12 26° ENE visible
13 Dec ? 05:56:54 10° SSW 06:00:48 25° W 06:02:11 22° WNW visible
13 Dec ? 18:00:27 10° N 18:05:15 72° WNW 18:10:01 10° SSW visible
14 Dec ? 05:02:27 10° SSE 05:07:11 81° ENE 05:07:57 62° N visible
14 Dec ? 18:45:27 10° NNW 18:49:17 24° WNW 18:53:07 10° WSW visible
15 Dec ? 04:10:26 10° ESE 04:13:43 21° ENE 04:13:43 21° ENE visible
15 Dec ? 05:47:17 10° SSW 05:51:30 32° W 05:52:42 28° WNW visible
15 Dec ? 17:51:12 10° NNE 17:56:02 88° ESE 18:00:50 10° SSW visible
16 Dec ? 04:53:17 10° SSE 04:57:58 63° ENE 04:58:28 59° NE visible
16 Dec ? 18:35:57 10° N 18:40:07 30° WNW 18:44:17 10° SW visible
17 Dec ? 04:01:49 10° ESE 04:04:14 17° ENE 04:04:14 17° ENE visible
17 Dec ? 05:37:47 10° S 05:42:14 41° W 05:43:13 36° WNW visible
17 Dec ? 17:41:59 10° NNE 17:46:48 70° ESE 17:51:35 10° S visible
17 Dec ? 19:23:06 10° NW 19:23:56 10° WNW 19:24:46 10° WNW visible
18 Dec ? 04:44:12 10° SSE 04:48:46 49° ENE 04:49:00 48° ENE visible
18 Dec ? 06:24:30 10° WSW 06:26:46 13° W 06:27:59 12° WNW visible
18 Dec ? 18:26:31 10° N 18:30:57 38° WNW 18:35:23 10° SW visible
19 Dec ? 03:53:27 10° E 03:54:47 13° ENE 03:54:47 13° ENE visible
19 Dec ? 05:28:21 10° S 05:32:58 53° W 05:33:46 47° WNW visible
19 Dec ? 19:12:33 10° NW 19:14:50 13° WNW 19:17:07 10° W visible
